• In Deutschland
  • Länderverzeichnis
  • Für 7 Tage
  • Wassertemperatur
  • Satellitenkarten
  • Wetterkarte
  • Widgets
  • user-avatar
    Anmelden

    Stündliche Wetter Dillenburg

    Heute, 18 Oktober, Mittwoch

    Zeit Temperatur Niederschläge Wind Luftdruck Luftfeuchtigkeit
    00:00 +12°C° 0 mm 1 m/S 737 mmHg 88%
    01:00 +12°C° 0 mm 1 m/S 737 mmHg 88%
    02:00 +12°C° 0 mm 1 m/S 736 mmHg 88%
    03:00 +11°C° 0 mm 1 m/S 736 mmHg 88%
    04:00 +11°C° 0 mm 1 m/S 736 mmHg 88%
    05:00 +11°C° 0 mm 1 m/S 735 mmHg 88%
    06:00 +10°C° 0 mm 1 m/S 735 mmHg 88%
    07:00 +10°C° 0 mm 1 m/S 735 mmHg 88%
    08:00 +12°C° 0 mm 1 m/S 735 mmHg 80%
    09:00 +13°C° 0 mm 2 m/S 735 mmHg 73%
    10:00 +15°C° 0 mm 2 m/S 735 mmHg 66%
    11:00 +16°C° 0 mm 2 m/S 735 mmHg 63%
    12:00 +18°C° 0 mm 2 m/S 735 mmHg 59%
    13:00 +19°C° 0 mm 2 m/S 735 mmHg 56%
    14:00 +19°C° 0 mm 2 m/S 734 mmHg 59%
    15:00 +19°C° 0 mm 2 m/S 734 mmHg 63%
    16:00 +19°C° 0 mm 1 m/S 734 mmHg 66%
    17:00 +16°C° 0 mm 1 m/S 734 mmHg 72%
    18:00 +15°C° 0 mm 1 m/S 734 mmHg 78%
    19:00 +13°C° 0 mm 1 m/S 734 mmHg 84%
    20:00 +12°C° 0 mm 1 m/S 734 mmHg 85%
    21:00 +12°C° 0 mm 1 m/S 734 mmHg 86%
    22:00 +12°C° 0 mm 1 m/S 734 mmHg 87%
    23:00 +11°C° 0 mm 1 m/S 734 mmHg 88%

    Morgen, 19 Oktober, Donnerstag

    Zeit Temperatur Niederschläge Wind Luftdruck Luftfeuchtigkeit
    00:00 +11°C° 0 mm 1 m/S 734 mmHg 88%
    01:00 +11°C° 0 mm 1 m/S 734 mmHg 88%
    02:00 +11°C° 0 mm 1 m/S 733 mmHg 88%
    03:00 +11°C° 0 mm 1 m/S 733 mmHg 88%
    04:00 +10°C° 0 mm 1 m/S 733 mmHg 88%
    05:00 +10°C° 0 mm 1 m/S 733 mmHg 87%
    06:00 +10°C° 0 mm 1 m/S 733 mmHg 86%
    07:00 +10°C° 0 mm 1 m/S 733 mmHg 86%
    08:00 +12°C° 0 mm 1 m/S 733 mmHg 79%
    09:00 +14°C° 0 mm 1 m/S 733 mmHg 72%
    10:00 +15°C° 0 mm 2 m/S 734 mmHg 66%
    11:00 +16°C° 0 mm 2 m/S 734 mmHg 63%
    12:00 +17°C° 0 mm 2 m/S 733 mmHg 60%
    13:00 +18°C° 0 mm 2 m/S 733 mmHg 56%
    14:00 +18°C° 0 mm 2 m/S 733 mmHg 58%
    15:00 +18°C° 0 mm 2 m/S 733 mmHg 60%
    16:00 +18°C° 0 mm 2 m/S 733 mmHg 61%
    17:00 +16°C° 0 mm 2 m/S 733 mmHg 66%
    18:00 +15°C° 0 mm 1 m/S 733 mmHg 71%
    19:00 +13°C° 0 mm 1 m/S 733 mmHg 76%
    20:00 +13°C° 0 mm 1 m/S 733 mmHg 75%
    21:00 +13°C° 0 mm 1 m/S 733 mmHg 74%
    22:00 +13°C° 0 mm 1 m/S 733 mmHg 74%
    23:00 +13°C° 0 mm 1 m/S 733 mmHg 76%

    übermorgen, 20 Oktober, Freitag

    Zeit Temperatur Niederschläge Wind Luftdruck Luftfeuchtigkeit
    00:00 +13°C° 0 mm 1 m/S 733 mmHg 78%
    01:00 +12°C° 0 mm 1 m/S 733 mmHg 81%
    02:00 +12°C° 0 mm 1 m/S 733 mmHg 82%
    03:00 +12°C° 0 mm 1 m/S 733 mmHg 83%
    04:00 +11°C° 0 mm 1 m/S 733 mmHg 85%
    05:00 +11°C° 0 mm 1 m/S 733 mmHg 83%
    06:00 +12°C° 0 mm 1 m/S 733 mmHg 82%
    07:00 +12°C° 0 mm 1 m/S 733 mmHg 81%
    08:00 +13°C° 0 mm 2 m/S 734 mmHg 79%
    09:00 +14°C° 0 mm 2 m/S 734 mmHg 76%
    10:00 +15°C° 0 mm 2 m/S 734 mmHg 73%
    11:00 +14°C° 0,1 mm 3 m/S 734 mmHg 74%
    12:00 +16°C° 0,1 mm 3 m/S 734 mmHg 74%
    13:00 +16°C° 0,1 mm 3 m/S 734 mmHg 75%
    14:00 +16°C° 0 mm 3 m/S 734 mmHg 74%
    15:00 +17°C° 0 mm 3 m/S 734 mmHg 73%
    16:00 +17°C° 0 mm 3 m/S 734 mmHg 72%
    17:00 +16°C° 0,1 mm 2 m/S 734 mmHg 77%
    18:00 +15°C° 0,1 mm 2 m/S 734 mmHg 82%
    19:00 +13°C° 0,1 mm 2 m/S 734 mmHg 87%
    20:00 +13°C° 0,1 mm 2 m/S 734 mmHg 87%
    21:00 +13°C° 0,1 mm 2 m/S 735 mmHg 88%
    22:00 +13°C° 0,1 mm 2 m/S 735 mmHg 88%
    23:00 +13°C° 0 mm 2 m/S 735 mmHg 90%

    21 Oktober, Samstag

    Zeit Temperatur Niederschläge Wind Luftdruck Luftfeuchtigkeit
    00:00 +12°C° 0 mm 2 m/S 734 mmHg 91%
    01:00 +12°C° 0 mm 2 m/S 734 mmHg 92%
    02:00 +12°C° 0 mm 2 m/S 734 mmHg 91%
    03:00 +12°C° 0 mm 2 m/S 734 mmHg 90%
    04:00 +12°C° 0 mm 2 m/S 734 mmHg 89%
    05:00 +12°C° 0 mm 2 m/S 733 mmHg 90%
    06:00 +12°C° 0 mm 2 m/S 733 mmHg 90%
    07:00 +12°C° 0 mm 2 m/S 733 mmHg 91%
    08:00 +13°C° 0,1 mm 2 m/S 733 mmHg 87%
    09:00 +13°C° 0,1 mm 3 m/S 733 mmHg 82%
    10:00 +16°C° 0,1 mm 3 m/S 734 mmHg 78%
    11:00 +15°C° 0,2 mm 4 m/S 734 mmHg 79%
    12:00 +15°C° 0,2 mm 4 m/S 734 mmHg 81%
    13:00 +15°C° 0,2 mm 4 m/S 733 mmHg 82%
    14:00 +14°C° 0,6 mm 4 m/S 734 mmHg 85%
    15:00 +14°C° 0,6 mm 3 m/S 734 mmHg 89%
    16:00 +13°C° 0,6 mm 3 m/S 734 mmHg 92%
    17:00 +13°C° 0,1 mm 3 m/S 734 mmHg 92%
    18:00 +12°C° 0,1 mm 3 m/S 734 mmHg 92%
    19:00 +12°C° 0,1 mm 3 m/S 734 mmHg 92%
    20:00 +11°C° 0 mm 3 m/S 735 mmHg 92%
    21:00 +11°C° 0 mm 3 m/S 735 mmHg 91%
    22:00 +10°C° 0 mm 3 m/S 735 mmHg 91%
    23:00 +10°C° 0 mm 3 m/S 735 mmHg 92%

    22 Oktober, Sonntag

    Zeit Temperatur Niederschläge Wind Luftdruck Luftfeuchtigkeit
    00:00 +9°C° 0 mm 3 m/S 735 mmHg 92%
    01:00 +9°C° 0 mm 3 m/S 735 mmHg 92%
    02:00 +9°C° 0 mm 3 m/S 735 mmHg 91%
    03:00 +8°C° 0 mm 4 m/S 735 mmHg 90%
    04:00 +8°C° 0 mm 4 m/S 735 mmHg 90%
    05:00 +7°C° 0 mm 4 m/S 735 mmHg 89%
    06:00 +7°C° 0 mm 4 m/S 735 mmHg 89%
    07:00 +7°C° 0 mm 4 m/S 735 mmHg 88%
    08:00 +7°C° 0 mm 4 m/S 735 mmHg 85%
    09:00 +8°C° 0 mm 5 m/S 735 mmHg 81%
    10:00 +9°C° 0 mm 5 m/S 736 mmHg 78%
    11:00 +9°C° 0,1 mm 5 m/S 736 mmHg 76%
    12:00 +9°C° 0,1 mm 5 m/S 736 mmHg 75%
    13:00 +9°C° 0,1 mm 5 m/S 736 mmHg 73%
    14:00 +9°C° 0,2 mm 5 m/S 736 mmHg 75%
    15:00 +10°C° 0,2 mm 4 m/S 737 mmHg 76%
    16:00 +10°C° 0,2 mm 4 m/S 737 mmHg 78%
    17:00 +8°C° 0 mm 4 m/S 737 mmHg 81%
    18:00 +8°C° 0 mm 3 m/S 738 mmHg 84%
    19:00 +7°C° 0 mm 3 m/S 738 mmHg 87%
    20:00 +7°C° 0 mm 3 m/S 739 mmHg 88%
    21:00 +5°C° 0 mm 3 m/S 739 mmHg 88%
    22:00 +5°C° 0 mm 3 m/S 739 mmHg 89%
    23:00 +5°C° 0 mm 3 m/S 739 mmHg 90%

    23 Oktober, Montag

    Zeit Temperatur Niederschläge Wind Luftdruck Luftfeuchtigkeit
    00:00 +5°C° 0 mm 2 m/S 739 mmHg 91%
    01:00 +5°C° 0 mm 2 m/S 740 mmHg 92%
    02:00 +5°C° 0 mm 2 m/S 740 mmHg 93%
    03:00 +5°C° 0 mm 2 m/S 740 mmHg 94%
    04:00 +5°C° 0 mm 2 m/S 740 mmHg 95%
    05:00 +5°C° 0 mm 2 m/S 740 mmHg 94%
    06:00 +5°C° 0 mm 2 m/S 740 mmHg 94%
    07:00 +5°C° 0 mm 2 m/S 740 mmHg 94%
    08:00 +5°C° 0 mm 3 m/S 741 mmHg 90%
    09:00 +8°C° 0 mm 3 m/S 741 mmHg 87%
    10:00 +8°C° 0 mm 4 m/S 741 mmHg 83%
    11:00 +10°C° 0 mm 4 m/S 741 mmHg 80%
    12:00 +11°C° 0 mm 4 m/S 741 mmHg 77%
    13:00 +12°C° 0 mm 5 m/S 740 mmHg 74%
    14:00 +11°C° 0 mm 4 m/S 740 mmHg 74%
    15:00 +11°C° 0 mm 4 m/S 740 mmHg 75%
    16:00 +11°C° 0 mm 4 m/S 740 mmHg 76%
    17:00 +11°C° 0 mm 4 m/S 740 mmHg 79%
    18:00 +10°C° 0 mm 3 m/S 739 mmHg 81%
    19:00 +9°C° 0 mm 3 m/S 739 mmHg 84%
    20:00 +9°C° 0 mm 3 m/S 739 mmHg 85%
    21:00 +9°C° 0 mm 3 m/S 739 mmHg 86%
    22:00 +9°C° 0 mm 3 m/S 739 mmHg 86%
    23:00 +9°C° 0 mm 3 m/S 739 mmHg 87%
    Mehr zeigen